Tracking 25620 objects as of 18-May-2022
HD Live streaming from Space Station
objects crossing your sky now

STARLINK-1437

Track STARLINK-1437 now!
10-day predictions
STARLINK-1437 is classified as:


NORAD ID: 45714
Int'l Code: 2020-035BK
Perigee: 553.1 km
Apogee: 555.7 km
Inclination: 53.1 °
Period: 95.6 minutes
Semi major axis: 6925 km
RCS: Unknown
Launch date: June 4, 2020
Source: United States (US)
Launch site: AIR FORCE EASTERN TEST RANGE (AFETR)
aabbcc
Your satellite tracking list
Your tracking list is empty




NASA's NSSDC Master Catalog

Two Line Element Set (TLE):
1 45714U 20035BK  22138.32830218  .00000548  00000-0  55713-4 0  9996
2 45714  53.0545 162.6821 0001866  40.1677 319.9449 15.06384840109443
Source of the keplerian elements: AFSPC